This is the latest recevied weather packets stored in our database for station/object PY2UEP-1. If no packets are shown the sender has not sent any weather packets the latest 10 day(s).
| Time | Temp. | Humidity | Pressure | Rain* | Wind** | Luminosity | Snow |
|---|---|---|---|---|---|---|---|
| 1777646440 | 26.11° C | 64% | 1021.8 hPa | 0 mm | - | - | - |
| 1777646140 | 26.11° C | 65% | 1021.9 hPa | 0 mm | - | - | - |
| 1777645840 | 26.11° C | 66% | 1022 hPa | 0 mm | - | - | - |
| 1777645540 | 25.56° C | 67% | 1022 hPa | 0 mm | - | - | - |
| 1777645241 | 25.56° C | 68% | 1022.1 hPa | 0 mm | - | - | - |
| 1777644940 | 25° C | 68% | 1022.1 hPa | 0 mm | - | - | - |
| 1777644640 | 25° C | 68% | 1022.3 hPa | 0 mm | - | - | - |
| 1777644340 | 25° C | 68% | 1022.4 hPa | 0 mm | - | - | - |
| 1777644039 | 25° C | 69% | 1022.4 hPa | 0 mm | - | - | - |
| 1777643739 | 24.44° C | 70% | 1022.4 hPa | 0 mm | - | - | - |
| 1777643440 | 24.44° C | 70% | 1022.6 hPa | 0 mm | - | - | - |
| 1777643139 | 24.44° C | 70% | 1022.6 hPa | 0 mm | - | - | - |
| 1777642840 | 24.44° C | 70% | 1022.6 hPa | 0 mm | - | - | - |
| 1777642540 | 24.44° C | 70% | 1022.6 hPa | 0 mm | - | - | - |
| 1777642239 | 24.44° C | 72% | 1022.6 hPa | 0 mm | - | - | - |
| 1777641939 | 23.89° C | 73% | 1022.6 hPa | 0 mm | - | - | - |
| 1777641640 | 23.33° C | 73% | 1022.6 hPa | 0 mm | - | - | - |
| 1777641340 | 23.89° C | 72% | 1022.6 hPa | 0 mm | - | - | - |
| 1777641039 | 23.33° C | 73% | 1022.6 hPa | 0 mm | - | - | - |
| 1777640740 | 23.33° C | 74% | 1022.6 hPa | 0 mm | - | - | - |
| 1777640439 | 23.33° C | 73% | 1022.7 hPa | 0 mm | - | - | - |
| 1777640139 | 23.33° C | 73% | 1022.5 hPa | 0 mm | - | - | - |
| 1777639840 | 23.33° C | 74% | 1022.4 hPa | 0 mm | - | - | - |
| 1777639539 | 22.78° C | 74% | 1022.4 hPa | 0 mm | - | - | - |
| 1777639239 | 22.78° C | 75% | 1022.5 hPa | 0 mm | - | - | - |
* Rain since midnight (hover to see other rain measurements)
** Current wind speed in m/s (hover to see current wind gust speed)